STARLINK-11313, 61255

Orbit data source: Space-Track

STARLINK-11313, 61255 is a payload satellite owned by SpaceX/Seattle (US) in LEO that was launched on Wed, 25 Sep 2024 UTC via an FALCON 9 launch vehicle from the Air Force Western Test Range (AFWTR). Payloads include a variety of satellites, spacecraft, and rockets equipped with specific instruments for various scientific and technological missions. These include communications satellites like Starlink; space stations such as the ISS; scientific satellites like the Hubble; Earth observation satellites from companies like Planet Labs, Umbra, and HawkEye 360; GPS; miniature CubeSats for education and research; and military/defense satellites.

Loading next visibility...
STARLINK-11313 details
Identifier
61255, 2024-175N
Orbit
LEO
Last TLE update1 day ago
Origin
Flag of USSpaceX/Seattle (US)
ManufacturerSpaceX/Seattle
MissionOperational spacecraft
Bus & MotorSTARLINK V2M, Unknown motor
Mass730 kg wet, ~700 kg dry
Launch date (UTC)
2024-09-25 (3 months ago)
Launch vehicle
FALCON 9
Launch site
Air Force Western Test Range (AFWTR)
Object type
Payload
Rocket body
Debris
Shape & HBRUnknown
Radar Cross SectionLarge (>1 m²)

Expand to show TLE details & history

TLE from 1 day ago
0 STARLINK-11313
1 61255U 24175N   24355.52134778  .00001428  00000-0  16640-4 0  9990
2 61255  53.1578  85.9398 0001317  91.1683 268.9485 15.69715114 14605
Epoch: 2024-12-20T12:30Z
Definitive object data (Epoch: 2024-12-20T12:30:44.448Z)
Latitude-0.00007°
Longitude168.66889°
Altitude360.643 km
Speed7.694 km/s
True Right ascension05h 43m 45s
True Declination0° 00' 00"
Sunlit
Object was in full shadow at TLE epoch
Visualization TLE readout
Latitude-12.76482°
Longitude-6.49398°
Altitude363.312 km
Speed7.692 km/s
Apparent Right ascension20h 13m 03s
Apparent Declination-31° 50' 01"
Sunlit
Object is in daylight
Visualization observer readout
Local Sidereal Time11:17:36
Azimuth92.505° ESE
Elevation-52.184°
Doppler factor1
Orbital elements
Apogee altitude360.861 km
Perigee altitude359.086 km
Semi-major axis6,738.11 km
Eccentricity0.0001317
Inclination53.1578°
RAAN85.9398°
Arg. of periapsis91.1683°
True anomaly268.93341°
Mean anomaly268.9485°
Eccentric anomaly268.94096°
Mean motion3.92406 °/min
BSTAR0.00001664
Orbital period91.74 mins
Loading maneuver chart data...
Loading historical data...
Loading historical data...
Loading historical data...
Loading historical data...
Loading historical data...
Loading historical data...
Loading historical data...

STARLINK-11313 Visibility forecast

Observer location: undefined°, undefined

Span
Click to sort rows by Start time (UTC) header in descending order
Start Az.
Max El. time (UTC)
Max El. Az.
Max El.
End time (UTC)
End Az.
4 mins2024-12-21 14:57:49.728Z335.36° NNW2024-12-21 14:59:49.728Z32.413° NE26.421°2024-12-21 15:01:49.728Z89.75° E
4 mins2024-12-22 09:02:49.728Z266.262° W2024-12-22 09:03:49.728Z303.894° NW33.595°2024-12-22 09:06:49.728Z37.802° NE
|